QPF
0.10 0.11 0.08 0.07 0.06 0.04 0.04 0.05 0.06 0.08 0.08 0.06 0.05 0.04 0.03 0.04 0.05 0.03 0.02 0.01 0.01 0.00 0.00 0.00 0.00 0.00 0.00 0.01 0.02 0.02 0.04 0.05 0.05 0.06 0.07 0.07 0.09 0.07
0.11 0.12 0.09 0.08 0.07 0.05 0.05 0.04 0.04 0.06 0.09 0.04 0.04 0.05 0.05 0.04 0.04 0.03 0.04 0.04 0.01 0.00 0.00 0.00 0.00 0.00 0.00 0.00 0.01 0.01 0.01 0.02 0.03 0.05 0.06 0.06 0.06 0.06
0.10 0.12 0.11 0.08 0.08 0.06 0.06 0.06 0.05 0.05 0.06 0.05 0.04 0.05 0.05 0.08 0.06 0.04 0.05 0.04 0.03 0.02 0.01 0.00 0.00 0.00 0.00 0.00 0.00 0.01 0.01 0.01 0.02 0.03 0.04 0.05 0.05 0.04
0.08 0.08 0.09 0.09 0.08 0.08 0.09 0.08 0.07 0.07 0.06 0.06 0.05 0.04 0.05 0.06 0.07 0.05 0.04 0.03 0.03 0.02 0.02 0.01 0.01 0.01 0.00 0.00 0.00 0.00 0.01 0.01 0.01 0.02 0.03 0.04 0.05 0.05
0.07 0.06 0.06 0.06 0.07 0.07 0.07 0.07 0.08 0.06 0.07 0.07 0.05 0.05 0.05 0.04 0.06 0.06 0.06 0.05 0.02 0.02 0.02 0.01 0.01 0.01 0.01 0.00 0.00 0.00 0.01 0.01 0.01 0.01 0.02 0.03 0.04 0.05
0.06 0.05 0.05 0.04 0.05 0.07 0.05 0.05 0.05 0.06 0.07 0.07 0.06 0.05 0.05 0.04 0.06 0.06 0.06 0.06 0.05 0.04 0.03 0.02 0.02 0.02 0.01 0.01 0.01 0.01 0.01 0.01 0.02 0.02 0.02 0.03 0.03 0.04
0.07 0.04 0.04 0.04 0.04 0.04 0.03 0.05 0.05 0.04 0.05 0.06 0.05 0.05 0.05 0.06 0.05 0.04 0.04 0.05 0.04 0.04 0.05 0.05 0.05 0.06 0.05 0.02 0.01 0.01 0.01 0.01 0.02 0.03 0.03 0.04 0.05 0.05
0.06 0.06 0.05 0.05 0.03 0.02 0.01 0.02 0.03 0.03 0.04 0.05 0.04 0.05 0.06 0.05 0.04 0.05 0.05 0.06 0.05 0.03 0.04 0.05 0.05 0.06 0.05 0.03 0.02 0.01 0.01 0.01 0.01 0.02 0.03 0.04 0.06 0.06
0.07 0.08 0.06 0.05 0.04 0.02 0.01 0.01 0.01 0.01 0.02 0.03 0.04 0.04 0.05 0.05 0.05 0.05 0.05 0.06 0.05 0.03 0.03 0.03 0.04 0.04 0.02 0.02 0.02 0.01 0.01 0.01 0.01 0.01 0.01 0.04 0.04 0.04
0.05 0.06 0.07 0.06 0.07 0.05 0.04 0.03 0.01 0.01 0.01 0.02 0.02 0.03 0.04 0.04 0.04 0.04 0.05 0.05 0.04 0.04 0.03 0.03 0.03 0.03 0.02 0.02 0.01 0.01 0.01 0.01 0.02 0.03 0.02 0.02 0.03 0.03
0.05 0.06 0.06 0.05 0.07 0.06 0.06 0.06 0.04 0.03 0.01 0.01 0.01 0.01 0.02 0.03 0.02 0.04 0.05 0.06 0.04 0.03 0.03 0.03 0.03 0.04 0.04 0.03 0.02 0.02 0.02 0.02 0.02 0.03 0.04 0.04 0.03 0.04
0.05 0.05 0.06 0.05 0.06 0.05 0.04 0.05 0.04 0.04 0.04 0.04 0.03 0.02 0.01 0.01 0.01 0.02 0.04 0.06 0.04 0.03 0.02 0.03 0.03 0.05 0.05 0.04 0.03 0.03 0.02 0.01 0.01 0.02 0.03 0.05 0.05 0.04
0.04 0.05 0.05 0.04 0.04 0.04 0.04 0.04 0.03 0.04 0.04 0.03 0.03 0.03 0.03 0.03 0.03 0.02 0.03 0.04 0.04 0.03 0.02 0.04 0.04 0.05 0.05 0.05 0.05 0.04 0.04 0.03 0.01 0.01 0.01 0.02 0.02 0.02
0.03 0.03 0.03 0.04 0.03 0.02 0.01 0.01 0.02 0.02 0.03 0.03 0.03 0.03 0.02 0.02 0.02 0.02 0.02 0.03 0.04 0.03 0.03 0.05 0.05 0.05 0.05 0.06 0.06 0.05 0.04 0.04 0.04 0.03 0.03 0.02 0.02 0.02
0.02 0.03 0.03 0.02 0.01 0.01 0.01 0.01 0.02 0.02 0.02 0.03 0.03 0.02 0.03 0.04 0.04 0.04 0.04 0.04 0.04 0.03 0.03 0.04 0.05 0.05 0.06 0.05 0.05 0.05 0.05 0.05 0.05 0.05 0.04 0.04 0.04 0.04
0.01 0.01 0.01 0.02 0.03 0.02 0.01 0.02 0.02 0.02 0.02 0.03 0.04 0.03 0.04 0.04 0.05 0.04 0.04 0.05 0.05 0.03 0.03 0.04 0.05 0.05 0.04 0.04 0.04 0.04 0.04 0.05 0.04 0.05 0.05 0.05 0.04 0.04
0.02 0.02 0.02 0.03 0.03 0.03 0.04 0.04 0.03 0.02 0.02 0.03 0.03 0.04 0.04 0.04 0.04 0.05 0.05 0.05 0.05 0.04 0.03 0.04 0.05 0.06 0.05 0.04 0.04 0.04 0.04 0.04 0.05 0.05 0.06 0.05 0.04 0.04
0.02 0.03 0.03 0.04 0.04 0.03 0.03 0.04 0.04 0.03 0.03 0.03 0.03 0.03 0.03 0.03 0.04 0.04 0.05 0.05 0.05 0.04 0.04 0.05 0.06 0.07 0.07 0.06 0.05 0.05 0.05 0.06 0.06 0.07 0.07 0.06 0.05 0.04
0.03 0.04 0.04 0.06 0.07 0.07 0.06 0.04 0.03 0.04 0.04 0.03 0.03 0.03 0.03 0.03 0.03 0.04 0.04 0.03 0.03 0.03 0.04 0.05 0.06 0.06 0.06 0.05 0.04 0.05 0.06 0.08 0.09 0.09 0.09 0.09 0.07 0.05
0.04 0.04 0.05 0.06 0.06 0.06 0.06 0.06 0.06 0.05 0.04 0.04 0.04 0.04 0.04 0.04 0.03 0.04 0.04 0.03 0.03 0.03 0.04 0.04 0.04 0.04 0.04 0.04 0.05 0.05 0.04 0.05 0.07 0.09 0.08 0.07 0.06 0.06
0.03 0.03 0.04 0.06 0.06 0.06 0.06 0.06 0.05 0.04 0.04 0.04 0.04 0.05 0.05 0.05 0.05 0.05 0.05 0.05 0.04 0.04 0.05 0.04 0.03 0.02 0.03 0.05 0.05 0.04 0.04 0.04 0.05 0.07 0.09 0.08 0.07 0.06
0.04 0.03 0.03 0.04 0.05 0.05 0.05 0.06 0.05 0.04 0.03 0.03 0.03 0.03 0.03 0.04 0.04 0.04 0.05 0.05 0.04 0.03 0.03 0.02 0.02 0.03 0.04 0.05 0.04 0.04 0.04 0.03 0.04 0.05 0.06 0.07 0.08 0.07
0.05 0.04 0.04 0.04 0.04 0.03 0.04 0.04 0.04 0.04 0.03 0.03 0.03 0.03 0.03 0.03 0.04 0.04 0.04 0.05 0.05 0.04 0.04 0.04 0.03 0.04 0.04 0.04 0.05 0.05 0.05 0.04 0.05 0.05 0.04 0.04 0.04 0.03
MSLP
1011.83 1012.65 1013.49 1014.30 1015.05 1015.72 1016.30 1016.80 1017.25 1017.67 1018.08 1018.48 1018.90 1019.32 1019.72 1020.10 1020.45 1020.77 1021.06 1021.33 1021.59 1021.84 1022.08 1022.30 1022.49 1022.64 1022.73 1022.75 1022.71 1022.61 1022.48 1022.35 1022.22 1022.13 1022.07 1022.06 1022.08 1022.13
1011.96 1012.69 1013.42 1014.13 1014.78 1015.36 1015.88 1016.35 1016.79 1017.23 1017.68 1018.14 1018.62 1019.09 1019.53 1019.94 1020.29 1020.60 1020.86 1021.09 1021.29 1021.50 1021.71 1021.91 1022.11 1022.28 1022.41 1022.48 1022.51 1022.48 1022.42 1022.33 1022.25 1022.17 1022.13 1022.11 1022.12 1022.16
1012.26 1012.90 1013.52 1014.10 1014.63 1015.10 1015.53 1015.95 1016.36 1016.80 1017.28 1017.79 1018.31 1018.83 1019.31 1019.75 1020.11 1020.41 1020.64 1020.83 1020.99 1021.15 1021.31 1021.48 1021.66 1021.83 1021.98 1022.10 1022.18 1022.21 1022.21 1022.18 1022.14 1022.10 1022.08 1022.08 1022.09 1022.13
1012.70 1013.24 1013.75 1014.21 1014.61 1014.96 1015.30 1015.64 1016.01 1016.44 1016.91 1017.44 1018.00 1018.55 1019.07 1019.53 1019.91 1020.21 1020.42 1020.58 1020.70 1020.81 1020.92 1021.04 1021.19 1021.34 1021.49 1021.62 1021.73 1021.81 1021.86 1021.88 1021.89 1021.90 1021.91 1021.93 1021.97 1022.02
1013.20 1013.66 1014.06 1014.40 1014.69 1014.94 1015.17 1015.44 1015.75 1016.13 1016.59 1017.11 1017.68 1018.25 1018.79 1019.27 1019.67 1019.97 1020.18 1020.33 1020.41 1020.48 1020.54 1020.62 1020.71 1020.82 1020.95 1021.07 1021.19 1021.29 1021.37 1021.44 1021.50 1021.55 1021.61 1021.67 1021.74 1021.81
1013.68 1014.07 1014.39 1014.64 1014.83 1014.98 1015.13 1015.31 1015.55 1015.88 1016.29 1016.79 1017.34 1017.91 1018.45 1018.95 1019.36 1019.67 1019.89 1020.03 1020.10 1020.14 1020.16 1020.19 1020.23 1020.29 1020.37 1020.47 1020.57 1020.67 1020.77 1020.87 1020.97 1021.08 1021.18 1021.29 1021.40 1021.51
1014.07 1014.41 1014.67 1014.85 1014.96 1015.04 1015.12 1015.22 1015.40 1015.66 1016.02 1016.47 1016.98 1017.52 1018.05 1018.54 1018.96 1019.29 1019.52 1019.67 1019.74 1019.76 1019.75 1019.74 1019.73 1019.74 1019.77 1019.82 1019.90 1019.99 1020.09 1020.22 1020.35 1020.50 1020.66 1020.82 1020.98 1021.13
1014.34 1014.64 1014.86 1015.00 1015.07 1015.09 1015.11 1015.16 1015.28 1015.47 1015.77 1016.15 1016.60 1017.10 1017.60 1018.07 1018.48 1018.82 1019.06 1019.22 1019.30 1019.32 1019.29 1019.25 1019.21 1019.17 1019.15 1019.16 1019.20 1019.27 1019.38 1019.52 1019.68 1019.87 1020.07 1020.28 1020.49 1020.68
1014.48 1014.76 1014.96 1015.08 1015.12 1015.12 1015.11 1015.12 1015.18 1015.31 1015.54 1015.85 1016.23 1016.67 1017.12 1017.55 1017.94 1018.27 1018.52 1018.69 1018.78 1018.81 1018.78 1018.72 1018.65 1018.58 1018.53 1018.50 1018.51 1018.57 1018.67 1018.82 1019.01 1019.23 1019.48 1019.72 1019.97 1020.19
1014.53 1014.80 1014.99 1015.10 1015.14 1015.14 1015.11 1015.09 1015.11 1015.20 1015.36 1015.60 1015.91 1016.27 1016.65 1017.04 1017.40 1017.70 1017.95 1018.12 1018.22 1018.26 1018.24 1018.18 1018.10 1018.02 1017.94 1017.89 1017.89 1017.93 1018.03 1018.19 1018.39 1018.64 1018.90 1019.17 1019.43 1019.67
1014.52 1014.79 1014.99 1015.11 1015.16 1015.16 1015.13 1015.10 1015.10 1015.15 1015.26 1015.43 1015.67 1015.95 1016.26 1016.59 1016.89 1017.17 1017.40 1017.57 1017.67 1017.72 1017.72 1017.67 1017.59 1017.51 1017.43 1017.38 1017.37 1017.41 1017.50 1017.66 1017.86 1018.10 1018.37 1018.64 1018.90 1019.12
1014.47 1014.75 1014.96 1015.10 1015.17 1015.19 1015.17 1015.15 1015.14 1015.16 1015.23 1015.35 1015.52 1015.73 1015.98 1016.23 1016.48 1016.72 1016.92 1017.07 1017.18 1017.24 1017.25 1017.22 1017.17 1017.10 1017.03 1016.99 1016.97 1017.01 1017.09 1017.23 1017.42 1017.65 1017.89 1018.13 1018.36 1018.55
1014.38 1014.68 1014.91 1015.07 1015.16 1015.20 1015.21 1015.20 1015.19 1015.21 1015.25 1015.33 1015.45 1015.60 1015.78 1015.98 1016.17 1016.36 1016.53 1016.67 1016.78 1016.84 1016.87 1016.87 1016.84 1016.79 1016.75 1016.71 1016.70 1016.73 1016.79 1016.90 1017.05 1017.23 1017.43 1017.62 1017.80 1017.94
1014.21 1014.53 1014.78 1014.96 1015.08 1015.15 1015.18 1015.19 1015.20 1015.21 1015.25 1015.31 1015.40 1015.51 1015.64 1015.79 1015.94 1016.09 1016.23 1016.35 1016.45 1016.53 1016.58 1016.60 1016.60 1016.58 1016.56 1016.53 1016.52 1016.52 1016.56 1016.62 1016.71 1016.83 1016.95 1017.08 1017.19 1017.27
1013.91 1014.25 1014.52 1014.72 1014.86 1014.95 1015.01 1015.04 1015.07 1015.11 1015.15 1015.21 1015.28 1015.37 1015.47 1015.59 1015.71 1015.83 1015.95 1016.07 1016.17 1016.26 1016.33 1016.38 1016.41 1016.41 1016.40 1016.38 1016.35 1016.33 1016.32 1016.32 1016.34 1016.38 1016.42 1016.47 1016.51 1016.54
1013.41 1013.77 1014.05 1014.27 1014.43 1014.54 1014.62 1014.69 1014.74 1014.80 1014.86 1014.93 1015.01 1015.10 1015.19 1015.29 1015.40 1015.52 1015.63 1015.75 1015.86 1015.97 1016.06 1016.13 1016.18 1016.21 1016.20 1016.18 1016.13 1016.07 1016.01 1015.94 1015.89 1015.84 1015.81 1015.78 1015.77 1015.75
1012.71 1013.07 1013.36 1013.58 1013.75 1013.88 1013.99 1014.08 1014.16 1014.25 1014.34 1014.43 1014.53 1014.63 1014.73 1014.84 1014.95 1015.07 1015.19 1015.32 1015.45 1015.57 1015.69 1015.78 1015.85 1015.89 1015.89 1015.85 1015.78 1015.68 1015.56 1015.43 1015.31 1015.20 1015.10 1015.03 1014.97 1014.94
1011.84 1012.18 1012.46 1012.68 1012.85 1012.99 1013.11 1013.22 1013.34 1013.45 1013.57 1013.70 1013.82 1013.94 1014.07 1014.19 1014.32 1014.45 1014.58 1014.73 1014.88 1015.02 1015.15 1015.27 1015.35 1015.39 1015.39 1015.34 1015.24 1015.11 1014.95 1014.78 1014.61 1014.45 1014.33 1014.23 1014.17 1014.15
1010.87 1011.18 1011.43 1011.63 1011.80 1011.94 1012.08 1012.21 1012.35 1012.49 1012.65 1012.80 1012.95 1013.09 1013.24 1013.38 1013.52 1013.66 1013.82 1013.97 1014.13 1014.29 1014.44 1014.56 1014.65 1014.70 1014.69 1014.64 1014.53 1014.37 1014.19 1014.00 1013.81 1013.65 1013.52 1013.44 1013.41 1013.43
1009.94 1010.18 1010.39 1010.57 1010.72 1010.86 1011.01 1011.16 1011.32 1011.49 1011.66 1011.84 1012.01 1012.17 1012.33 1012.48 1012.63 1012.77 1012.93 1013.09 1013.25 1013.41 1013.56 1013.69 1013.78 1013.83 1013.83 1013.77 1013.65 1013.50 1013.33 1013.15 1012.98 1012.84 1012.75 1012.72 1012.74 1012.83
1009.14 1009.31 1009.47 1009.61 1009.75 1009.89 1010.04 1010.21 1010.39 1010.58 1010.77 1010.96 1011.14 1011.31 1011.46 1011.60 1011.73 1011.86 1012.00 1012.14 1012.29 1012.44 1012.58 1012.70 1012.79 1012.84 1012.84 1012.79 1012.70 1012.57 1012.43 1012.28 1012.16 1012.09 1012.06 1012.09 1012.19 1012.35
1008.57 1008.67 1008.77 1008.88 1009.00 1009.14 1009.31 1009.49 1009.69 1009.90 1010.10 1010.29 1010.46 1010.60 1010.73 1010.83 1010.93 1011.02 1011.11 1011.21 1011.32 1011.44 1011.56 1011.66 1011.74 1011.80 1011.81 1011.79 1011.73 1011.65 1011.56 1011.48 1011.43 1011.43 1011.48 1011.59 1011.77 1011.99
1008.26 1008.29 1008.34 1008.43 1008.55 1008.70 1008.88 1009.09 1009.30 1009.52 1009.72 1009.89 1010.04 1010.15 1010.22 1010.26 1010.29 1010.31 1010.33 1010.37 1010.42 1010.48 1010.56 1010.64 1010.71 1010.77 1010.80 1010.82 1010.81 1010.79 1010.77 1010.77 1010.80 1010.88 1011.01 1011.20 1011.44 1011.71
Thickness
5712 5712 5711 5712 5713 5713 5713 5711 5703 5697 5697 5704 5707 5711 5711 5709 5707 5705 5704 5703 5702 5701 5700 5699 5698 5698 5697 5697 5696 5696 5696 5695 5695 5695 5694 5694 5693 5693
5709 5708 5708 5708 5709 5710 5710 5710 5707 5701 5696 5701 5704 5707 5707 5707 5705 5703 5702 5701 5700 5699 5698 5697 5696 5695 5695 5694 5693 5693 5692 5692 5692 5691 5691 5690 5690 5689
5705 5705 5704 5705 5704 5705 5706 5706 5704 5702 5696 5698 5701 5703 5702 5702 5700 5700 5699 5699 5698 5698 5697 5695 5694 5693 5692 5691 5691 5690 5689 5689 5688 5687 5687 5686 5686 5685
5700 5700 5700 5701 5700 5700 5700 5700 5700 5700 5696 5692 5694 5696 5697 5697 5697 5696 5697 5697 5696 5695 5695 5693 5692 5691 5690 5689 5688 5687 5686 5686 5685 5684 5683 5683 5682 5681
5695 5695 5695 5695 5694 5695 5695 5696 5696 5697 5695 5691 5690 5692 5692 5693 5692 5692 5693 5693 5693 5693 5692 5691 5689 5688 5687 5686 5685 5684 5684 5683 5682 5681 5680 5679 5679 5678
5691 5691 5691 5691 5690 5690 5691 5691 5691 5690 5689 5687 5686 5686 5687 5688 5687 5685 5685 5687 5688 5690 5688 5687 5687 5686 5685 5684 5683 5682 5681 5680 5680 5679 5678 5676 5676 5674
5685 5686 5687 5687 5686 5686 5686 5685 5685 5683 5683 5682 5680 5680 5680 5680 5680 5682 5680 5681 5683 5685 5683 5683 5683 5682 5681 5681 5680 5679 5679 5678 5677 5676 5674 5673 5672 5671
5679 5680 5681 5682 5681 5681 5681 5680 5680 5678 5677 5675 5674 5673 5674 5675 5676 5676 5675 5674 5672 5679 5678 5678 5680 5679 5680 5679 5679 5678 5677 5676 5674 5673 5671 5670 5669 5667
5674 5675 5676 5677 5676 5676 5676 5675 5674 5673 5673 5671 5669 5669 5670 5671 5671 5670 5669 5668 5668 5673 5673 5672 5676 5675 5678 5678 5677 5676 5675 5673 5672 5670 5668 5667 5665 5664
5669 5670 5669 5669 5671 5670 5670 5669 5669 5669 5669 5668 5668 5668 5668 5669 5668 5666 5665 5666 5667 5669 5670 5666 5670 5671 5674 5674 5674 5673 5672 5670 5668 5666 5664 5662 5661 5660
5664 5665 5665 5664 5665 5664 5663 5662 5662 5663 5665 5665 5664 5664 5663 5663 5662 5661 5660 5658 5657 5661 5665 5663 5663 5665 5667 5668 5669 5668 5667 5666 5664 5662 5660 5658 5656 5655
5660 5660 5660 5660 5659 5658 5657 5656 5656 5658 5659 5659 5658 5658 5659 5659 5658 5656 5655 5653 5653 5654 5658 5657 5657 5657 5656 5661 5662 5662 5660 5659 5658 5657 5655 5654 5652 5649
5654 5655 5656 5655 5654 5653 5653 5652 5652 5653 5653 5653 5653 5654 5654 5654 5654 5653 5653 5651 5649 5649 5653 5652 5651 5650 5649 5651 5653 5655 5655 5654 5652 5651 5649 5648 5646 5644
5647 5649 5650 5649 5648 5647 5647 5648 5648 5647 5647 5647 5647 5648 5649 5649 5650 5650 5650 5649 5648 5647 5648 5647 5645 5644 5642 5642 5644 5647 5648 5649 5648 5646 5645 5643 5641 5639
5641 5642 5641 5641 5641 5642 5642 5643 5642 5642 5642 5641 5642 5644 5646 5646 5646 5646 5645 5644 5644 5644 5644 5643 5641 5640 5638 5637 5637 5639 5640 5641 5642 5641 5640 5638 5637 5635
5633 5634 5634 5635 5636 5637 5638 5638 5638 5638 5638 5637 5638 5640 5641 5641 5640 5640 5638 5638 5636 5636 5638 5638 5637 5635 5633 5633 5632 5632 5634 5634 5635 5635 5634 5633 5632 5630
5627 5628 5629 5630 5631 5632 5634 5635 5635 5634 5633 5634 5634 5634 5634 5634 5634 5634 5633 5632 5630 5629 5629 5631 5632 5631 5629 5627 5626 5626 5627 5627 5628 5628 5626 5625 5625 5624
5620 5622 5624 5625 5626 5628 5629 5630 5630 5630 5629 5629 5629 5628 5628 5628 5627 5628 5628 5626 5624 5624 5624 5624 5624 5622 5620 5621 5622 5621 5621 5621 5621 5621 5620 5617 5616 5617
5615 5618 5619 5621 5623 5624 5625 5625 5625 5625 5625 5625 5624 5623 5623 5622 5622 5622 5621 5620 5620 5619 5620 5620 5618 5615 5612 5612 5616 5616 5615 5615 5614 5613 5612 5611 5609 5609
5611 5614 5615 5617 5618 5619 5620 5621 5621 5621 5620 5620 5619 5619 5618 5617 5616 5616 5616 5615 5615 5614 5614 5614 5613 5611 5609 5608 5608 5609 5609 5608 5606 5605 5604 5603 5601 5600
5607 5608 5610 5611 5612 5613 5614 5614 5615 5614 5614 5615 5614 5614 5613 5611 5611 5611 5611 5610 5608 5608 5607 5607 5608 5608 5606 5604 5601 5602 5601 5600 5600 5597 5596 5593 5591 5590
5600 5602 5604 5606 5607 5607 5607 5608 5608 5608 5608 5608 5609 5608 5608 5607 5606 5606 5605 5605 5604 5603 5602 5601 5601 5600 5598 5595 5594 5593 5592 5591 5589 5589 5586 5584 5582 5581
5594 5596 5598 5599 5600 5601 5601 5601 5601 5602 5602 5602 5602 5602 5601 5601 5600 5600 5600 5599 5598 5596 5595 5594 5593 5592 5591 5589 5587 5586 5585 5582 5580 5578 5575 5575 5574 5573